Home   Weather   Nadi   Past weeks

Flag for Fiji Past Weather in Nadi, Fiji — Yesterday and Last 2 Weeks

Now
79 °F

Passing clouds.


Feels Like: 82 °F
Forecast: 79 / 89 °F
Wind: 9 mph from East

Location: Nandi

Current Time: Dec 4, 2016 at 11:35:15 pm

Latest Report: Dec 4, 2016 at 11:00 pm


Visibility: N/A

Pressure: 29.80 "Hg

Humidity: 79%

Dew Point: 72 °F

Location of NadiLocation

Past Weather in Nadi — Graph

°F

Nadi Temperature Yesterday

Maximum temperature yesterday: 90 °F (at 2:00 pm)
Minimum temperature yesterday: 77 °F (at 1:00 am)
Average temperature yesterday: 82 °F

High & Low Weather Summary for the Past Weeks

 TemperatureHumidityPressure
High90 °F (Nov 20, 5:00 pm)100% (Nov 26, 6:00 pm)29.95 "Hg (Nov 26, 6:00 pm)
Low72 °F (Nov 29, 6:00 am)49% (Nov 21, 11:00 am)29.68 "Hg (Dec 3, 4:00 pm)
Average81 °F78%29.81 "Hg
* Reported Nov 19 10:00 pm — Dec 4 10:00 pm, Nadi, Weather by CustomWeather, © 2016

Note: Actual official high and low records may vary slightly from our data, if they occured in-between our weather recording intervals... More about our weather records

Advertising

Nadi Weather History for the Previous 24 Hours

Scroll right to see more
 ConditionsComfort  
Time TempWeatherWind HumidityBarometerVisibility
10:00 pm
Sun, Dec 4
81 °FPassing clouds.9 mph74%29.77 "HgN/A
9:00 pm81 °FPassing clouds.10 mph74%29.77 "HgN/A
8:00 pm82 °FPassing clouds.10 mph70%29.74 "HgN/A
7:00 pm86 °FScattered clouds.15 mph62%29.74 "HgN/A
6:00 pm86 °FScattered clouds.10 mph66%29.71 "HgN/A
5:00 pm88 °FScattered clouds.13 mph62%29.71 "HgN/A
4:00 pm86 °FSprinkles. Scattered clouds.9 mph66%29.71 "HgN/A
3:00 pm88 °FScattered clouds.12 mph66%29.74 "HgN/A
2:00 pm88 °FPassing clouds.12 mph59%29.74 "HgN/A
1:00 pm88 °FScattered clouds.13 mph62%29.77 "HgN/A
12:00 pm88 °FScattered clouds.12 mph75%29.77 "HgN/A
11:00 am84 °FScattered clouds.8 mph70%29.77 "HgN/A
10:00 am86 °FScattered clouds.No wind66%29.77 "HgN/A
9:00 am84 °FPassing clouds.6 mph70%29.77 "HgN/A
8:00 am79 °FScattered clouds.3 mph84%29.77 "HgN/A
7:00 am75 °FScattered clouds.3 mph94%29.77 "HgN/A
6:00 am75 °FPassing clouds.2 mph94%29.77 "HgN/A
5:00 am75 °FPassing clouds.3 mph94%29.74 "HgN/A
4:00 am75 °FPassing clouds.5 mph94%29.74 "HgN/A
3:00 am77 °FPassing clouds.3 mph89%29.74 "HgN/A
2:00 am77 °FPassing clouds.1 mph89%29.77 "HgN/A
1:00 am79 °FPassing clouds.3 mph84%29.77 "HgN/A
12:00 am79 °FPassing clouds.3 mph84%29.80 "HgN/A
11:00 pm
Sat, Dec 3
79 °FPassing clouds.3 mph89%29.80 "HgN/A
Weather by CustomWeather, © 2016

See weather overviewHow to use our weather pages